Regional Weather Roundup
Issued by NWS Charleston, SC

Current Version | Previous Version | Graphics & Text | Print | Product List | Glossary On
Versions: 1 2 3 4 5 6 7 8 9 10 11 12 13 14 15 16 17 18 19 20 21 22 23 24 25 26 27 28 29 30 31 32 33 34 35 36 37 38 39 40 41 42 43 44 45 46 47 48 49 50
019
ASUS42 KCHS 231127
RWRCHS

REGIONAL WEATHER ROUNDUP
NATIONAL WEATHER SERVICE CHARLESTON SC
700 AM EDT THU MAR 23 2017

NOTE: "FAIR" INDICATES FEW OR NO CLOUDS BELOW 12,000 FEET WITH NO
SIGNIFICANT WEATHER AND/OR OBSTRUCTIONS TO VISIBILITY.

NOT ALL STATIONS ARE QUALITY CONTROLLED. USE DATA WITH CAUTION...
ESPECIALLY DEWPOINT OBSERVATIONS.

SCZ027-030-031-034>040-042>050-231200-
...SOUTHEAST SOUTH CAROLINA...

CITY           SKY/WX    TMP DP  RH WIND       PRES   REMARKS
N CHARLESTON   PTCLDY    47  37  68 NE10      30.40R
WATERFRONT PRK   N/A     54  44  69 NE15G22   30.37R
JOHNS ISLAND   FAIR      54  39  58 NE12G20   30.39R
PINOPOLIS        N/A     46  37  71 E12       30.33R
MONCKS CORNER  FAIR      43  25  49 NE6       30.42R
SUMMERVILLE    FAIR      45  34  65 NE5       30.42R
BEAUFORT MCAS  CLEAR     52  42  69 NE15      30.36R
BEAUFORT ARPT  FAIR      54  43  66 NE16G23   30.36R
HILTON HEAD IS MOCLDY   N/A N/A N/A NE14G23   30.34R
WALTERBORO     SUNNY     45  36  70 NE9       30.41R
ALLENDALE      FAIR      48  37  66 VRB5      30.39R

...SOUTHERN MIDLANDS AND PEE DEE...

CITY           SKY/WX    TMP DP  RH WIND       PRES   REMARKS
GEORGETOWN     FAIR      43  36  75 NE6       30.44R
KINGSTREE      FAIR      39  27  60 NE5       30.46R WCI  36
ORANGEBURG     CLEAR     45  28  51 NE8       30.42R
BARNWELL       FAIR      48  36  61 NE7G13    30.42R
AIKEN          FAIR      43  36  75 NE8       30.46R
MANNING        FAIR      41  28  60 NE7       30.45R
COLUMBIA       PTCLDY    46  28  49 NE9       30.44R
SUMTER         PTCLDY    41  30  64 NE8       30.44R
FLORENCE       PTCLDY    37  29  72 NE7       30.49R WCI  32
MYRTLE BEACH   CLEAR     39  30  70 NE10      30.47R WCI  32
N MYRTLE BEACH PTCLDY    38  30  73 N8        30.47R WCI  32

$$

GAZ063-065-086>088-099>101-113>116-118-119-134>141-150-231200-
...SOUTHEAST GEORGIA...

CITY           SKY/WX    TMP DP  RH WIND       PRES   REMARKS
SAVANNAH ARPT  MOCLDY    55  43  63 E14       30.34R
HUNTER AAF     MOCLDY    56  48  73 NE12      30.31R
FORT STEWART   CLOUDY    57  46  66 E8        30.30R
STATESBORO     PTCLDY    52  43  72 NE5       30.37R
SYLVANIA       SUNNY    N/A N/A N/A E6        30.38R
CLAXTON        FAIR     N/A N/A N/A NE9       30.35R

...CSRA...CENTRAL AND FAR SOUTHEAST GEORGIA...

CITY           SKY/WX    TMP DP  RH WIND       PRES   REMARKS
THOMSON        CLOUDY    48  37  66 MISG      30.47R
AUGUSTA-BUSH   CLEAR     48  40  73 CALM      30.40R
AUGUSTA-DANIEL MOCLDY    50  37  61 E8        30.40R
SWAINSBORO     CLOUDY    52  45  76 E9        30.37R
VIDALIA        CLOUDY    55  50  82 E13G20    30.34R
EASTMAN        CLOUDY    58  38  47 E6        30.35R
HAZLEHURST     CLOUDY    59  55  86 E8        30.30R
ALMA           CLOUDY    57  53  86 NE6       30.28R
WAYCROSS       PTCLDY    61  58  91 E8        30.28R
JESUP          CLOUDY    59  48  67 E10       30.31R
BAXLEY         CLOUDY    59  55  88 E9        30.30R
BRUNSWICK      CLOUDY    61  55  82 NE14G23   30.31R
SAINT SIMONS   CLOUDY    62  54  74 NE15G24   30.27R

$$

SCZ027-028-034-036>038-045-046-048>050-GAZ119-141-231200-
...LAKE AND SUPPLEMENTAL COASTAL OBSERVATIONS...

STATION/POSITION TIME  TEMP    WIND        PRES    WAVE   SWELL
                       AIR SEA DIR/SP/G            HT/PER HT/PER/DIR
                 (UTC) (F)     (DEG/KT/KT) (MB)    (FT/S) (FT/S/D)
WINYAH BAY       1030   49      40/ 11     1030.0R
LAKE MURRAY      1050   43      30/  2/  6 1030.1R
ACE BASIN NERRS  1030   51      20/  4     1028.0R
FORT PULASKI     1100   58 61   70/ 22/ 28 1027.3
SAPELO ISLAND    1100   60      50/ 14     1026.0

$$

ANZ835-935-AMZ111-154-330-350-352-354-370-450-454-472-231200-
...C-MAN AND BUOY OBSERVATIONS...

STATION/POSITION TIME  TEMP    WIND        PRES    WAVE   SWELL
                       AIR SEA DIR/SP/G            HT/PER HT/PER/DIR
                 (UTC) (F)     (DEG/KT/KT) (MB)    (FT/S) (FT/S/D)
BUOY 41004       1050   61 66   60/ 19/ 25 1026.9R   8/ 8
BUOY 41008       1050   63 62   60/ 21/ 25 1024.6R   7/ 7   2/ 80/ 9
FOLLY BEACH CMAN 1100   55      50/ 23/ 26 1029.1R
CAPERS NEARSHORE 1108   56      70/ 21/ 29 1028.4R
FRIPP NEARSHORE  1108   57 60   60/ 23/ 31 1028.2R


STATION/POSITION TIME  TEMP    WIND        PRES    WAVE   SWELL
                       AIR SEA DIR/SP/G            HT/PER HT/PER/DIR
                 (UTC) (F)     (DEG/KT/KT) (MB)    (FT/S) (FT/S/D)
5E ST. MARYS GA  1100      63                N/A     5/ 7   2/ 90/11
FRYING PAN BUOY  1110   54 65   40/ 19/ 25 1030.3
BUOY 41025       1050   45 75   30/ 21/ 29 1032.1R  11/10
CAPE LOOKOUT NC  1100   44      30/ 20/ 23 1032.3R
BUOY 41002       1050   61 72   40/ 19/ 23 1026.1R   9/10   7/ 30/10
BUOY 41010       NOT AVBL
ST AUGUSTINE FL  1100   67 66   90/ 12/ 14 1024.3R


$$




USA.gov is the U.S. government's official web portal to all federal, state and local government web resources and services.